SCP
0 0 0 0 0 0 0 0 0 0 0 0 0 0 0 0 0 0 0 0 0 0 0 0 0 0 0 0 0 0 0 0 0 0 0 0 0 0 0 0 0 0 0
0 0 0 0 0 0 0 0 0 0 0 0 0 0 0 0 0 0 0 0 0 0 0 0 0 0 0 0 0 0 0 0 0 0 0 0 0 0 0 0 0 0 0
0 0 0 0 0 0 0 0 0 0 0 0 0 0 0 0 0 0 0 0 0 0 0 0 0 0 0 0 0 0 0 0 0 0 0 0 0 0 0 0 0 0 0
0 0 0 0 0 0 0 0 0 0 0 0 0 0 0 0 0 0 0 0 0 0 0 0 0 0 0 0 0 0 0 0 0 0 0 0 0 0 0 0 0 0 0
1 1 0 0 0 0 0 0 0 0 0 0 0 0 0 0 0 0 0 0 0 0 0 0 0 0 0 0 0 0 0 0 0 0 0 0 0 0 0 0 0 0 0
1 1 0 0 0 0 0 0 0 0 0 0 0 0 0 0 0 0 0 0 0 0 0 0 0 0 0 0 0 0 0 0 0 0 0 0 0 0 0 0 0 0 0
1 1 0 0 0 0 0 0 0 0 0 0 0 0 0 0 0 0 0 0 0 0 0 0 0 0 0 0 0 0 0 0 0 0 0 0 0 0 0 0 0 0 0
1 1 0 0 0 0 0 0 0 0 0 0 0 0 0 0 0 0 0 0 0 0 0 0 0 0 0 0 0 0 0 0 0 0 0 0 0 0 0 0 0 0 0
1 1 0 0 0 0 0 0 0 0 0 0 0 0 0 0 0 0 0 0 0 0 0 0 0 0 0 0 0 0 0 0 0 0 0 0 0 0 0 0 0 0 0
1 1 0 0 0 0 0 0 0 0 0 0 0 0 0 0 0 0 0 0 0 0 0 0 0 0 0 0 0 0 0 0 0 0 0 0 0 0 0 0 0 0 0
1 1 0 0 0 0 0 0 0 0 0 0 0 0 0 0 0 0 0 0 0 0 0 0 0 0 0 0 0 0 0 0 0 0 0 0 0 0 0 0 0 0 0
1 1 0 0 0 0 0 0 0 0 0 0 0 0 0 0 0 0 0 0 0 0 0 0 0 0 0 0 0 0 0 0 0 0 0 0 0 0 0 0 0 0 0
1 1 0 0 0 0 0 0 0 0 0 0 0 0 0 0 0 0 0 0 0 0 0 0 0 0 0 0 0 0 0 0 0 0 0 0 0 0 0 0 0 0 0
1 1 0 0 0 0 0 0 0 0 0 0 0 0 0 0 0 0 0 0 0 0 0 0 0 0 0 0 0 0 0 0 0 0 0 0 0 0 0 0 0 0 0
1 0 0 0 0 0 0 0 0 0 0 0 0 0 0 0 0 0 0 0 0 0 0 0 0 0 0 0 0 0 0 0 0 0 0 0 0 0 0 0 0 0 0
1 0 0 0 0 0 0 0 0 0 0 0 0 0 0 0 0 0 0 0 0 0 0 0 0 0 0 0 0 0 0 0 0 0 0 0 0 0 0 0 0 0 0
0 0 0 0 0 0 0 0 0 0 0 0 0 0 0 0 0 0 0 0 0 0 0 0 0 0 0 0 0 0 0 0 0 0 0 0 0 0 0 0 0 0 0
0 0 0 0 0 0 0 0 0 0 0 0 0 0 0 0 0 0 0 0 0 0 0 0 0 0 0 0 0 0 0 0 0 0 0 0 0 0 0 0 0 0 0
0 0 0 0 0 0 0 0 0 0 0 0 0 0 0 0 0 0 0 0 0 0 0 0 0 0 0 0 0 0 0 0 0 0 0 0 0 0 0 0 0 0 0
0 0 0 0 0 0 0 0 0 0 0 0 0 0 0 0 0 0 0 0 0 0 0 0 0 0 0 0 0 0 0 0 0 0 0 0 0 0 0 0 0 0 0
0 0 0 0 0 0 0 0 0 0 0 0 0 0 0 0 0 0 0 0 0 0 0 0 0 0 0 0 0 0 0 0 0 0 0 0 0 0 0 0 0 0 0
0 0 0 0 0 0 0 0 0 0 0 0 0 0 0 0 0 0 0 0 0 0 0 0 0 0 0 0 0 0 0 0 0 0 0 0 0 0 0 0 0 0 0
0 0 0 0 0 0 0 0 0 0 0 0 0 0 0 0 0 0 0 0 0 0 0 0 0 0 0 0 0 0 0 0 0 0 0 0 0 0 0 0 0 0 0
0 0 0 0 0 0 0 0 0 0 0 0 0 0 0 0 0 0 0 0 0 0 0 0 0 0 0 0 0 0 0 0 0 0 0 0 0 0 0 0 0 0 0
0 0 0 0 0 0 0 0 0 0 0 0 0 0 0 0 0 0 0 0 0 0 0 0 0 0 0 0 0 0 0 0 0 0 0 0 0 0 0 0 0 0 0
0 0 0 0 0 0 0 0 0 0 0 0 0 0 0 0 0 0 0 0 0 0 0 0 0 0 0 0 0 0 0 0 0 0 0 0 0 0 0 0 0 0 0
Wind_Speed
5 4 4 3 3 3 2 2 2 2 3 3 3 3 3 3 3 3 3 3 3 3 2 3 2 1 1 1 2 2 2 3 5 3 2 3 4 5 5 5 5 5 6
5 5 4 4 3 3 3 2 3 3 3 3 3 3 3 3 3 4 3 3 3 3 3 3 3 3 3 2 2 3 3 3 5 6 3 2 3 4 4 5 5 5 5
6 6 5 4 4 4 3 3 3 4 4 3 4 4 4 3 4 4 4 4 4 4 3 3 3 4 4 3 3 3 3 4 4 5 4 2 2 3 4 5 5 4 5
7 7 6 5 5 4 4 4 4 4 4 4 4 4 4 4 4 4 4 4 5 4 4 4 3 3 3 3 3 4 5 5 5 5 4 3 3 3 3 4 3 3 3
8 7 6 5 4 4 4 4 5 5 4 4 5 4 3 3 3 3 4 4 4 4 4 4 4 5 5 4 4 5 6 5 5 5 4 3 3 3 2 2 3 3 3
9 8 6 5 5 4 4 5 5 5 4 4 4 4 4 3 4 5 4 4 4 4 4 3 4 5 6 7 8 7 7 6 6 5 3 4 3 3 2 3 3 2 1
9 8 7 7 6 5 5 5 5 4 4 4 4 4 4 3 5 6 6 4 4 3 3 3 3 4 5 5 7 8 8 7 6 5 5 4 4 4 4 4 3 2 2
8 8 7 7 6 6 5 5 4 4 4 4 3 3 3 3 5 7 8 6 5 4 4 3 4 3 3 5 6 6 5 4 3 3 4 3 3 4 4 4 4 3 2
8 8 8 8 7 7 6 5 4 4 4 3 3 3 3 2 4 6 6 4 4 4 4 4 4 4 4 6 6 6 5 4 5 6 5 5 6 6 6 5 4 3 2
9 8 8 8 8 8 7 5 4 4 4 4 3 2 2 2 3 5 6 4 4 3 3 3 5 4 4 5 5 5 5 2 3 4 5 5 4 5 5 4 4 3 2
8 8 8 8 8 7 6 5 5 5 4 3 3 2 2 1 2 4 5 3 3 3 2 2 2 4 5 5 4 4 4 3 3 4 3 3 3 3 2 2 2 2 2
9 9 9 8 7 7 7 6 6 6 5 3 2 1 1 1 1 2 4 4 4 3 2 1 1 3 4 4 3 4 5 4 3 3 3 2 1 1 1 1 1 1 1
9 9 8 8 7 7 7 7 6 5 4 4 3 2 1 1 1 2 3 4 4 2 2 2 2 4 4 4 4 5 4 3 3 2 2 1 0 0 0 1 1 1 1
10 9 8 8 7 7 6 6 6 5 5 4 4 3 2 1 1 1 2 2 3 2 2 3 3 4 4 3 3 2 2 2 2 2 1 1 1 1 1 1 1 1 0
9 8 8 7 7 6 5 4 6 5 6 6 5 4 4 4 4 5 5 3 3 3 3 2 2 2 2 2 1 1 1 2 2 1 1 1 1 1 1 0 0 0 1
8 7 6 6 6 6 5 3 2 2 5 6 6 5 4 4 5 7 7 6 5 6 4 2 2 1 2 2 2 1 1 1 1 2 2 1 1 1 1 1 1 1 1
7 7 6 6 6 6 6 6 4 1 2 3 5 6 6 6 6 7 7 5 5 6 3 2 2 3 2 2 2 2 2 2 2 2 2 2 2 2 2 1 1 1 1
6 7 6 6 6 6 6 5 5 5 4 2 2 5 7 7 7 6 7 6 3 3 3 3 3 3 3 3 3 2 2 2 2 2 2 2 2 2 2 2 2 3 2
6 5 5 5 5 5 5 5 4 5 4 3 2 2 4 5 5 5 7 4 4 4 4 3 3 3 3 3 3 3 3 3 3 2 2 3 3 3 3 3 2 3 3
5 7 6 5 5 5 5 5 5 5 5 4 4 4 4 4 4 4 5 5 5 4 4 4 4 4 4 3 3 3 3 3 3 3 3 3 3 3 3 4 3 3 3
4 5 7 5 5 6 6 6 6 6 6 5 5 5 8 6 6 6 6 6 6 6 5 5 4 4 4 3 3 4 4 4 3 3 3 3 3 3 3 3 3 3 3
4 5 5 6 5 5 5 5 6 6 6 6 4 4 9 6 5 5 6 6 6 5 5 5 5 4 5 5 4 4 4 4 4 4 4 3 3 3 3 3 3 3 3
5 5 5 5 5 5 5 5 5 6 6 6 5 5 6 6 6 6 6 6 5 5 5 5 5 4 4 4 4 4 4 5 4 4 4 4 3 3 3 3 4 3 3
5 5 5 5 5 5 6 6 6 6 6 5 5 6 6 6 6 7 6 5 5 5 5 5 5 6 6 4 3 3 3 3 3 4 5 4 4 3 3 3 3 4 4
4 4 5 5 5 5 5 5 5 6 5 5 6 6 6 6 6 6 5 5 6 5 6 6 5 5 7 7 5 4 4 4 3 3 3 4 4 3 3 3 3 3 3
4 4 4 4 4 5 5 6 6 6 6 6 6 5 5 6 6 6 5 5 5 5 5 5 5 6 6 5 6 5 4 4 4 4 3 3 3 3 3 3 3 3 3
Wind_Direction
161 156 149 145 142 131 126 126 117 103 101 95 82 72 71 68 67 74 66 63 71 56 52 70 64 69 93 107 120 123 127 129 130 109 91 92 91 93 86 84 80 76 78
161 153 151 143 137 131 130 124 113 104 93 95 94 82 71 68 68 74 72 67 68 61 57 67 60 70 74 80 99 108 118 127 137 133 114 99 96 105 102 93 83 80 77
152 148 144 143 141 140 134 121 113 109 99 86 84 84 77 72 69 69 75 72 69 64 64 73 66 78 77 77 92 102 106 112 118 129 122 102 92 102 99 89 82 71 75
152 151 152 159 158 147 133 120 111 107 101 94 87 83 81 77 75 75 76 75 70 62 60 68 67 78 88 94 101 107 112 110 113 119 119 110 102 101 107 109 99 79 70
154 158 164 161 152 136 125 120 114 107 104 100 92 81 76 79 81 88 85 83 76 69 59 57 67 82 87 95 113 120 122 120 122 123 123 118 117 125 131 132 124 110 80
158 162 158 150 144 136 131 124 114 105 100 93 90 89 78 73 89 95 101 92 84 80 71 55 61 63 78 86 97 107 122 133 138 136 135 139 149 147 133 137 135 128 111
159 159 158 157 152 146 141 131 123 116 107 97 92 91 83 83 96 98 98 97 87 76 72 65 68 62 71 88 89 86 85 98 122 140 144 153 160 167 153 139 133 126 130
157 156 157 155 150 143 140 138 131 122 116 110 104 99 94 97 104 103 98 87 80 66 60 67 79 67 75 98 97 87 77 71 92 121 141 150 150 154 154 149 143 126 103
161 161 161 159 154 151 148 146 140 131 122 118 119 113 107 102 109 112 106 95 85 68 57 60 72 75 81 103 103 99 88 71 73 87 100 109 118 128 138 130 133 135 132
170 167 162 158 158 160 159 151 139 137 135 129 115 107 113 117 128 123 116 110 100 84 59 52 58 73 87 106 113 115 108 91 85 81 76 80 98 116 131 150 158 151 140
160 158 156 156 159 161 155 148 141 134 127 122 114 96 95 110 138 140 131 122 127 113 87 56 49 68 84 98 111 120 134 125 102 98 93 86 86 93 106 131 165 170 168
155 161 163 161 161 164 157 151 147 143 140 140 134 111 79 95 133 158 150 138 138 128 130 118 87 87 88 97 106 121 122 115 109 104 99 94 93 92 89 98 127 151 198
160 166 164 162 162 160 160 158 154 154 156 165 168 172 182 152 152 160 158 150 143 131 143 145 128 110 97 94 103 119 122 120 122 123 128 131 113 68 84 96 89 104 99
164 166 165 163 162 163 164 164 165 170 172 177 183 191 189 183 190 173 158 150 141 126 116 107 101 95 85 91 96 102 108 126 136 141 138 108 96 115 103 81 97 100 101
166 166 168 169 165 168 165 169 176 185 186 182 190 188 187 203 216 193 175 176 172 164 134 103 91 91 90 92 100 100 106 123 129 140 140 137 132 130 112 108 129 156 208
161 165 172 172 168 167 161 147 115 162 177 185 184 181 200 203 179 176 180 179 171 154 135 137 150 159 170 171 166 160 162 171 175 170 168 174 178 177 169 155 162 182 220
166 167 168 168 169 170 170 172 171 140 136 182 190 189 190 180 174 173 172 168 163 152 152 174 183 189 194 193 190 188 194 192 182 184 189 194 196 196 193 206 209 215 241
163 164 166 171 170 171 175 179 179 179 184 201 209 199 192 184 178 176 162 137 142 168 197 200 203 203 202 200 198 196 194 183 184 194 201 205 202 199 202 213 219 224 235
161 162 168 172 172 169 168 172 180 188 192 189 172 181 190 179 171 170 158 168 186 196 203 206 206 204 204 203 201 198 196 198 201 202 210 212 210 209 218 225 228 227 228
162 165 166 169 169 167 172 182 189 192 194 196 201 191 161 154 171 180 185 194 198 203 203 206 208 208 205 203 200 201 206 209 208 214 219 219 216 215 220 224 227 228 229
164 167 166 170 179 182 186 190 192 194 197 202 208 195 178 186 194 194 194 199 203 206 205 206 207 209 209 203 203 209 212 216 215 220 224 221 218 223 230 227 227 228 232
175 178 180 183 184 187 192 192 190 196 200 200 196 187 186 198 202 201 205 209 210 211 208 204 208 211 209 204 205 208 215 221 223 222 223 223 220 222 224 224 227 228 228
180 182 183 184 185 184 190 194 195 200 204 203 197 190 190 205 210 210 213 214 208 208 206 201 205 210 208 205 206 204 212 222 223 217 217 220 221 221 221 226 231 233 237
185 187 189 190 189 189 197 199 201 205 207 205 202 199 200 205 212 214 214 210 204 203 199 199 204 207 203 198 201 206 216 222 217 213 212 215 219 220 219 229 236 242 245
190 190 195 200 196 198 202 204 204 206 206 207 208 207 205 205 209 212 208 202 199 200 200 200 202 205 207 204 203 208 208 205 210 211 206 206 209 209 211 227 235 240 240
204 202 202 202 201 202 201 205 210 209 208 210 210 210 208 206 207 205 200 197 200 200 200 199 201 203 203 204 208 204 194 192 196 196 194 194 197 204 208 224 234 238 244